Вернуться в каталог

PREFIRE-1

АктивенНаукаSSO
NORAD 59965·PAYLOAD·🇺🇸 United States

Запущен Jun 5, 2024 с Rocket Lab Launch Complex 1

Loading…

Ближайшие Пролёты (ближайшие 24 часа)

TLE

СвежийSource: Space-Track

Эпоха: Sep 14, 2026, 10:14 UTC

1 59965U 24108A   26257.42669616  .00003645  00000-0  15164-3 0  9999
2 59965  97.5425  52.6747 0009629 290.9709  69.0497 15.24393811126181

Отслеживайте PREFIRE-1 в реальном времени с AllMySat

Download on the App Store